TimeCDT,TemperatureF,Dew PointF,Humidity,Sea Level PressureIn,VisibilityMPH,Wind Direction,Wind SpeedMPH,Gust SpeedMPH,PrecipitationIn,Events,Conditions,WindDirDegrees,DateUTC
12:15 AM,57.6,48.7,72,30.15,10.0,SE,5.8,-,N/A,,Clear,130,2012-10-30 05:15:00
12:35 AM,57.0,48.7,74,30.14,10.0,ESE,4.6,-,N/A,,Clear,120,2012-10-30 05:35:00
1:15 AM,56.1,48.9,77,30.13,10.0,ESE,3.5,-,N/A,,Clear,120,2012-10-30 06:15:00
1:35 AM,56.1,49.1,77,30.13,10.0,Calm,Calm,-,N/A,,Clear,0,2012-10-30 06:35:00
1:55 AM,55.9,48.7,77,30.13,10.0,Calm,Calm,-,N/A,,Clear,0,2012-10-30 06:55:00
2:15 AM,55.4,48.6,78,30.13,10.0,Calm,Calm,-,N/A,,Clear,0,2012-10-30 07:15:00
2:35 AM,54.5,48.2,79,30.12,10.0,Calm,Calm,-,N/A,,Clear,0,2012-10-30 07:35:00
2:55 AM,54.0,48.2,81,30.11,10.0,Calm,Calm,-,N/A,,Clear,0,2012-10-30 07:55:00
3:15 AM,53.1,48.4,84,30.11,10.0,Calm,Calm,-,N/A,,Clear,0,2012-10-30 08:15:00
3:55 AM,52.5,47.7,84,30.10,10.0,Calm,Calm,-,N/A,,Clear,0,2012-10-30 08:55:00
4:15 AM,52.7,47.8,84,30.09,10.0,Calm,Calm,-,N/A,,Clear,0,2012-10-30 09:15:00
4:35 AM,52.2,48.2,86,30.08,10.0,Calm,Calm,-,N/A,,Clear,0,2012-10-30 09:35:00
4:55 AM,51.8,48.2,88,30.08,10.0,Calm,Calm,-,N/A,,Clear,0,2012-10-30 09:55:00
5:15 AM,51.4,48.0,88,30.08,10.0,Calm,Calm,-,N/A,,Clear,0,2012-10-30 10:15:00
5:35 AM,51.6,48.6,89,30.08,10.0,Calm,Calm,-,N/A,,Clear,0,2012-10-30 10:35:00
5:55 AM,51.8,48.7,89,30.08,10.0,Calm,Calm,-,N/A,,Clear,0,2012-10-30 10:55:00
6:15 AM,51.8,49.1,90,30.08,10.0,Calm,Calm,-,N/A,,Clear,0,2012-10-30 11:15:00
6:35 AM,51.8,49.1,90,30.08,10.0,South,3.5,-,N/A,,Clear,180,2012-10-30 11:35:00
6:55 AM,51.6,49.1,91,30.08,10.0,South,3.5,-,N/A,,Clear,170,2012-10-30 11:55:00
7:35 AM,51.3,49.1,92,30.08,10.0,Calm,Calm,-,N/A,,Clear,0,2012-10-30 12:35:00
7:55 AM,51.6,49.5,92,30.08,10.0,Calm,Calm,-,N/A,,Clear,0,2012-10-30 12:55:00
8:15 AM,52.2,50.2,93,30.08,10.0,SSW,3.5,-,N/A,,Clear,200,2012-10-30 13:15:00
8:35 AM,53.8,51.3,91,30.09,10.0,Calm,Calm,-,N/A,,Clear,0,2012-10-30 13:35:00
8:55 AM,57.0,52.7,85,30.09,10.0,SSE,4.6,-,N/A,,Clear,150,2012-10-30 13:55:00
9:15 AM,60.4,53.8,79,30.09,10.0,SSE,6.9,-,N/A,,Clear,150,2012-10-30 14:15:00
9:35 AM,63.7,54.3,72,30.10,10.0,SE,5.8,-,N/A,,Clear,140,2012-10-30 14:35:00
9:55 AM,66.7,54.7,65,30.10,10.0,SSE,9.2,-,N/A,,Clear,160,2012-10-30 14:55:00
10:15 AM,68.9,55.4,62,30.10,10.0,SSE,12.7,-,N/A,,Clear,150,2012-10-30 15:15:00
10:35 AM,70.3,55.9,60,30.10,10.0,SE,11.5,17.3,N/A,,Clear,140,2012-10-30 15:35:00
10:55 AM,71.8,56.5,58,30.10,10.0,SSE,10.4,-,N/A,,Clear,150,2012-10-30 15:55:00
11:15 AM,72.9,56.1,56,30.09,10.0,South,10.4,-,N/A,,Clear,170,2012-10-30 16:15:00
11:35 AM,73.9,55.0,52,30.09,10.0,SSE,10.4,-,N/A,,Clear,150,2012-10-30 16:35:00
11:55 AM,74.8,54.9,50,30.08,10.0,SSE,13.8,-,N/A,,Clear,160,2012-10-30 16:55:00
12:15 PM,76.1,54.0,46,30.07,10.0,SSE,11.5,-,N/A,,Clear,150,2012-10-30 17:15:00
12:35 PM,76.8,54.1,45,30.06,10.0,South,8.1,-,N/A,,Clear,180,2012-10-30 17:35:00
12:55 PM,77.7,53.8,43,30.05,10.0,SSE,12.7,-,N/A,,Clear,160,2012-10-30 17:55:00
1:15 PM,78.6,52.9,41,30.04,10.0,SSE,13.8,19.6,N/A,,Clear,150,2012-10-30 18:15:00
1:35 PM,79.3,53.2,40,30.03,10.0,SSE,9.2,17.3,N/A,,Clear,160,2012-10-30 18:35:00
1:55 PM,79.9,53.2,40,30.02,10.0,SE,6.9,-,N/A,,Clear,140,2012-10-30 18:55:00
2:15 PM,80.6,52.9,38,30.01,10.0,ESE,8.1,16.1,N/A,,Clear,120,2012-10-30 19:15:00
2:35 PM,80.8,52.9,38,30.00,10.0,ESE,10.4,-,N/A,,Clear,120,2012-10-30 19:35:00
2:55 PM,81.3,52.5,37,29.99,10.0,South,11.5,16.1,N/A,,Clear,170,2012-10-30 19:55:00
3:15 PM,82.0,51.8,35,29.98,10.0,SE,10.4,16.1,N/A,,Clear,140,2012-10-30 20:15:00
3:35 PM,82.4,51.1,34,29.98,10.0,ESE,9.2,-,N/A,,Clear,110,2012-10-30 20:35:00
3:55 PM,82.6,50.7,33,29.97,10.0,East,3.5,-,N/A,,Clear,100,2012-10-30 20:55:00
4:15 PM,82.8,50.5,33,29.96,10.0,SSE,4.6,-,N/A,,Clear,160,2012-10-30 21:15:00
4:35 PM,82.8,50.2,32,29.96,10.0,SE,5.8,-,N/A,,Clear,140,2012-10-30 21:35:00
4:55 PM,82.9,50.4,32,29.96,10.0,ESE,8.1,-,N/A,,Clear,120,2012-10-30 21:55:00
5:15 PM,83.3,50.5,32,29.96,10.0,SE,11.5,-,N/A,,Clear,130,2012-10-30 22:15:00
5:35 PM,82.9,50.2,32,29.96,10.0,SSE,9.2,-,N/A,,Clear,160,2012-10-30 22:35:00
5:55 PM,82.6,50.0,32,29.95,10.0,SSE,8.1,-,N/A,,Clear,150,2012-10-30 22:55:00
6:15 PM,82.0,50.2,33,29.96,10.0,SE,8.1,-,N/A,,Clear,140,2012-10-30 23:15:00
6:35 PM,81.1,51.3,35,29.96,10.0,SE,6.9,-,N/A,,Clear,130,2012-10-30 23:35:00
6:55 PM,79.7,52.2,38,29.96,10.0,SE,5.8,-,N/A,,Clear,130,2012-10-30 23:55:00
7:15 PM,78.1,52.5,41,29.96,10.0,SE,5.8,-,N/A,,Clear,130,2012-10-31 00:15:00
7:55 PM,75.2,53.1,46,29.97,10.0,ESE,5.8,-,N/A,,Clear,110,2012-10-31 00:55:00
8:15 PM,74.3,53.4,48,29.98,10.0,East,9.2,-,N/A,,Clear,80,2012-10-31 01:15:00
8:35 PM,73.6,55.0,52,29.98,10.0,ESE,8.1,-,N/A,,Clear,110,2012-10-31 01:35:00
8:55 PM,72.9,56.8,57,29.99,10.0,ESE,10.4,-,N/A,,Clear,120,2012-10-31 01:55:00
9:15 PM,72.5,58.3,61,29.99,10.0,ESE,11.5,-,N/A,,Clear,120,2012-10-31 02:15:00
9:35 PM,71.6,59.0,64,30.00,10.0,ESE,10.4,-,N/A,,Clear,120,2012-10-31 02:35:00
9:55 PM,70.9,59.0,66,30.01,10.0,ESE,6.9,-,N/A,,Clear,120,2012-10-31 02:55:00
10:35 PM,69.3,59.4,71,30.01,10.0,ESE,6.9,-,N/A,,Clear,120,2012-10-31 03:35:00
11:15 PM,68.0,59.9,75,30.01,10.0,SE,6.9,-,N/A,,Clear,130,2012-10-31 04:15:00
11:35 PM,67.5,60.1,77,30.01,10.0,SE,6.9,-,N/A,,Clear,130,2012-10-31 04:35:00
11:55 PM,66.9,60.1,79,30.01,10.0,ESE,5.8,-,N/A,,Clear,110,2012-10-31 04:55:00